This is the latest recevied weather packets stored in our database for station/object K1BES. If no packets are shown the sender has not sent any weather packets the latest 10 day(s).
| Time | Temp. | Humidity | Pressure | Rain* | Wind** | Luminosity | Snow |
|---|---|---|---|---|---|---|---|
| 1777291706 | 21.67° C | 97% | 1016.7 hPa | 0 mm | - | 72 W/m² | - |
| 1777291402 | 21.11° C | 97% | 1016.9 hPa | 0 mm | - | 58 W/m² | - |
| 1777291099 | 21.11° C | 97% | 1016.8 hPa | 0 mm | - | 35 W/m² | - |
| 1777290796 | 20.56° C | 97% | 1016.8 hPa | 0 mm | - | 33 W/m² | - |
| 1777290493 | 20.56° C | 97% | 1016.5 hPa | 0 mm | - | 30 W/m² | - |
| 1777290188 | 20° C | 97% | 1016.6 hPa | 0 mm | - | 27 W/m² | - |
| 1777289886 | 20° C | 97% | 1016.5 hPa | 0 mm | - | 25 W/m² | - |
| 1777289581 | 20° C | 97% | 1016.2 hPa | 0 mm | - | 23 W/m² | - |
| 1777289277 | 20° C | 97% | 1016.3 hPa | 0 mm | - | 20 W/m² | - |
| 1777288974 | 20° C | 97% | 1016.4 hPa | 0 mm | - | 18 W/m² | - |
| 1777288670 | 20° C | 97% | 1016.3 hPa | 0 mm | - | 15 W/m² | - |
| 1777288368 | 19.44° C | 97% | 1016.2 hPa | 0 mm | - | 12 W/m² | - |
| 1777288064 | 20° C | 97% | 1016.1 hPa | 0 mm | - | 9 W/m² | - |
| 1777287761 | 20° C | 97% | 1016 hPa | 0 mm | - | 6 W/m² | - |
| 1777287457 | 20° C | 97% | 1016 hPa | 0 mm | - | 3 W/m² | - |
| 1777287152 | 20° C | 97% | 1015.9 hPa | 0 mm | - | 2 W/m² | - |
| 1777286850 | 20° C | 96% | 1016 hPa | 0 mm | - | 1 W/m² | - |
| 1777286548 | 20° C | 97% | 1016 hPa | 0 mm | - | 0 W/m² | - |
| 1777286245 | 20° C | 97% | 1016.1 hPa | 0 mm | - | 0 W/m² | - |
| 1777285942 | 20° C | 97% | 1016.2 hPa | 0 mm | - | 0 W/m² | - |
| 1777285638 | 20° C | 97% | 1016.1 hPa | 0 mm | - | 0 W/m² | - |
| 1777285337 | 20.56° C | 97% | 1015.6 hPa | 0 mm | - | 0 W/m² | - |
| 1777285033 | 20° C | 97% | 1016 hPa | 0 mm | - | 0 W/m² | - |
| 1777284731 | 20° C | 96% | 1015.9 hPa | 0 mm | - | 0 W/m² | - |
| 1777284427 | 20° C | 96% | 1016.1 hPa | 0 mm | - | 0 W/m² | - |
* Rain latest hour (hover to see other rain measurements)
** Current wind speed in m/s (hover to see current wind gust speed)